Location: Zagreb
(45.8000°N, 16.0000°E)
Time: 18:59:42
(UTC+02:00)

ISS - Pass Details

Date: 02 October 2021
Orbit: 417 x 423 km, 51.6° (Epoch: 23 October)

Event Time Altitude Azimuth Distance (km) Brightness Sun altitude
Rises 21:06:42 0° 291° (WNW) 2,365 1.4 -26.8°
Reaches altitude 10° 21:09:04 10° 276° (W) 1,498 -0.1 -27.2°
Enters shadow 21:10:21 17° 258° (WSW) 1,130 -1.0 -27.4°
